Theta_e
312 312 312 312 313 313 314 314 315 316 318 318 320 323 325 325 328 331 330 330 329 329 329 328 331 335 335 335 338 339 332 333 335 333 332 332 333 332 334 340 341 341 341 339 340
312 312 312 312 312 313 314 314 315 316 317 318 319 321 324 326 331 331 331 330 329 329 329 328 329 333 335 336 337 333 331 331 330 332 332 332 334 336 334 336 341 341 341 340 340
311 312 312 312 312 313 313 314 314 315 317 318 319 320 323 328 329 331 330 331 331 329 329 329 330 333 336 335 336 332 330 328 333 334 334 337 338 336 335 336 341 339 340 340 341
311 312 312 312 312 313 313 314 314 315 317 317 319 320 324 328 329 331 332 330 329 330 330 330 330 330 331 332 335 335 333 334 335 337 339 340 340 339 339 340 337 339 340 339 339
311 311 312 312 312 313 314 314 315 316 317 317 319 320 324 327 330 332 332 332 330 330 330 329 329 328 330 332 335 334 334 336 337 339 339 339 338 342 340 337 339 340 339 338 338
312 312 312 312 312 313 314 314 316 317 317 317 318 320 322 325 331 333 331 331 330 330 330 331 330 328 330 334 334 334 333 335 337 337 339 339 339 340 340 340 336 340 338 336 336
312 312 312 312 313 314 316 317 317 317 317 317 318 319 322 330 331 330 332 332 333 332 332 331 331 329 328 333 336 336 334 334 335 337 336 338 339 341 341 341 338 335 335 335 335
313 313 312 312 313 317 320 321 323 321 319 317 319 319 325 330 330 330 331 331 332 332 332 331 330 328 327 333 333 334 333 336 335 337 338 336 341 343 339 341 341 340 341 340 337
313 313 313 312 313 321 319 320 322 320 318 319 319 318 325 330 330 330 330 331 331 331 332 331 331 329 330 327 325 328 334 337 337 340 340 339 339 341 337 339 336 336 339 341 342
312 314 313 313 314 321 319 319 323 321 320 321 319 323 327 329 329 329 329 330 330 331 331 330 330 325 321 323 327 330 334 336 339 339 338 339 341 337 338 339 340 340 340 338 335
311 313 314 313 315 319 319 319 320 319 318 321 321 325 327 328 329 330 330 330 330 331 327 328 324 326 326 324 326 329 332 336 337 339 338 339 338 339 336 338 339 337 339 337 338
311 312 314 313 315 319 319 318 317 317 317 319 321 322 325 325 326 329 330 330 329 328 327 325 326 327 325 326 330 333 335 339 338 336 338 339 339 337 334 336 338 335 338 338 338
311 311 313 314 315 315 319 318 318 318 320 320 321 322 325 325 326 328 329 328 327 327 327 327 327 327 326 326 327 332 334 337 337 337 336 338 339 336 336 337 337 337 338 338 336
311 311 312 314 313 314 317 318 317 319 320 322 322 324 325 325 327 328 328 328 327 328 326 326 327 326 326 327 325 326 329 334 337 333 338 335 338 339 337 337 337 337 336 338 336
311 311 312 313 314 314 317 315 321 321 326 326 324 324 326 326 327 328 329 329 326 327 326 327 326 327 328 328 327 326 333 333 334 336 334 338 338 337 337 337 338 336 334 335 337
311 311 312 313 314 314 314 317 322 325 328 326 324 322 323 324 326 327 328 329 328 326 324 325 328 328 328 327 327 331 331 328 329 329 336 336 337 336 337 337 339 336 335 336 336
311 311 312 314 315 316 318 322 324 330 329 323 321 321 321 323 324 325 326 326 326 327 325 325 326 326 328 330 326 327 327 330 331 335 337 333 335 333 332 336 336 335 337 336 336
311 312 314 316 316 317 321 323 332 332 332 326 320 320 322 321 323 325 326 326 326 324 324 326 327 328 330 332 332 332 328 328 333 335 337 335 339 336 335 335 336 336 336 337 337
311 312 316 317 320 319 321 322 328 331 329 327 321 320 320 320 324 324 324 324 325 324 326 326 328 326 332 332 331 332 332 327 332 330 334 336 337 334 335 335 335 335 336 335 336
311 313 321 319 321 320 316 318 325 329 326 325 330 325 324 320 321 323 323 324 326 325 325 326 327 328 331 331 330 331 328 329 327 336 341 338 339 336 335 336 334 336 337 336 338
310 312 321 322 322 320 310 315 322 324 325 325 327 327 328 329 319 321 324 324 327 326 326 324 324 325 329 329 331 328 329 330 327 330 338 339 337 332 332 331 334 334 335 335 336
310 310 322 322 320 315 315 319 322 325 327 328 325 327 332 332 327 320 323 325 328 326 326 325 323 327 330 329 330 332 333 327 327 334 332 334 335 331 333 335 336 336 336 335 335
309 311 318 323 317 314 316 320 322 324 327 326 328 329 329 332 332 330 327 332 333 330 330 328 328 334 330 329 329 332 332 328 325 326 334 335 336 334 334 334 334 334 335 335 335
309 314 323 322 321 318 321 323 323 326 325 328 327 329 331 334 332 336 336 333 332 333 336 333 330 330 331 332 330 333 332 329 327 328 333 335 336 334 334 334 335 334 336 335 337
310 316 320 317 321 320 324 324 326 326 327 327 328 331 332 335 335 336 335 332 331 332 333 330 334 334 332 333 333 331 331 331 333 331 338 337 337 335 332 334 336 335 336 337 337
315 319 318 319 320 319 320 324 325 328 327 325 328 332 333 334 333 333 336 331 331 330 329 328 330 331 332 334 332 334 335 333 331 334 336 336 338 334 336 336 334 336 336 334 335
317 316 318 318 319 319 320 321 325 327 329 326 329 333 335 336 334 333 333 332 331 330 328 333 332 331 333 335 333 334 335 334 338 339 336 340 336 334 334 334 335 336 334 333 334
Wind_Speed
20 19 18 18 16 14 13 13 11 10 9 7 5 5 7 8 9 11 11 6 8 7 6 6 5 5 9 7 7 4 3 2 4 4 6 12 4 11 3 16 10 11 6 2 21
21 20 19 18 16 15 13 12 11 10 9 7 5 5 7 8 10 11 7 10 6 5 7 6 4 6 4 3 5 4 2 5 4 3 5 7 0 7 3 7 4 6 7 17 22
19 21 20 18 17 15 14 12 11 9 8 7 6 5 5 6 9 5 1 1 0 5 7 7 7 4 2 2 7 7 5 5 4 4 2 17 22 15 12 5 2 9 18 21 25
20 18 21 20 18 16 15 13 11 9 8 7 5 4 3 4 2 1 1 2 3 3 7 9 13 10 4 3 4 4 5 3 3 15 24 22 29 11 2 12 11 10 19 22 26
22 21 19 22 19 16 15 13 10 9 8 7 5 3 3 4 7 4 2 2 2 3 9 10 13 10 5 5 4 2 3 6 17 31 28 21 12 7 2 6 11 18 22 22 24
22 22 20 21 20 18 16 13 10 9 9 7 6 4 5 4 3 3 0 4 1 5 8 12 10 7 9 5 1 5 7 8 20 12 16 14 3 12 2 5 6 18 19 18 23
23 22 22 21 20 18 14 11 11 10 9 7 6 6 7 9 3 2 3 3 5 7 13 15 17 10 11 5 5 3 6 5 3 0 8 25 5 1 1 0 7 14 15 18 21
23 22 22 21 19 15 13 13 11 6 6 5 6 6 7 6 10 8 6 6 8 9 14 16 15 9 6 2 2 5 5 4 3 6 2 4 4 12 1 3 4 1 7 12 14
23 23 22 22 17 12 13 13 5 2 1 4 5 6 5 9 11 7 11 10 9 12 13 11 12 2 4 4 5 6 2 2 7 13 3 3 3 5 4 8 2 10 10 12 13
23 23 22 21 14 11 16 15 6 7 11 0 5 2 5 7 8 10 12 14 16 12 11 12 5 2 3 4 3 4 4 1 2 5 6 6 6 5 6 11 9 9 13 18 15
23 23 22 20 10 10 16 2 5 2 19 8 4 5 6 3 8 11 8 9 13 8 3 5 6 5 8 6 7 3 4 5 2 1 6 5 2 7 21 18 16 14 13 15 21
23 24 23 20 6 8 9 18 16 13 11 12 14 17 16 6 5 8 5 4 1 2 2 6 2 4 8 5 4 3 9 3 2 1 4 5 4 5 10 6 11 18 12 17 22
23 24 23 20 6 6 4 11 11 13 4 9 12 11 9 8 6 7 4 2 1 2 2 3 7 6 4 7 6 1 5 7 6 4 5 5 5 6 4 11 19 17 10 12 12
22 23 23 21 6 14 4 11 14 9 3 5 5 7 11 6 4 11 12 3 1 4 3 4 4 3 7 3 4 2 5 7 14 4 4 3 2 4 4 7 8 17 8 13 6
22 22 22 21 19 16 10 14 10 3 3 1 4 3 12 9 3 5 5 7 6 5 4 6 6 8 6 6 2 5 8 7 5 5 5 1 4 7 2 7 10 15 15 13 13
22 21 23 21 18 9 15 13 4 4 1 1 6 6 4 5 3 1 2 2 3 3 3 6 5 3 5 7 2 10 7 6 4 3 4 4 3 6 3 6 6 11 15 17 16
22 20 22 19 17 12 13 9 4 3 4 2 4 4 2 3 2 2 1 4 2 4 4 7 4 5 3 6 8 10 5 3 3 5 3 4 2 7 6 9 10 11 19 20 14
22 21 18 14 6 8 10 4 4 2 2 5 4 4 5 5 4 2 2 2 2 5 2 1 7 1 5 2 2 2 2 5 4 4 4 3 3 6 5 12 16 18 22 26 24
22 18 13 2 3 8 6 3 4 2 4 6 3 5 2 3 2 4 5 6 7 7 7 4 5 4 3 1 3 1 3 4 6 3 3 3 6 10 5 8 17 24 26 27 24
22 17 5 1 2 9 4 4 3 4 5 5 2 3 4 4 5 4 5 5 5 13 9 5 2 3 4 1 5 2 4 2 3 4 2 4 4 6 6 9 9 14 23 25 22
17 10 2 1 2 4 2 5 6 5 10 1 1 3 4 3 7 6 5 5 4 4 10 5 3 5 3 3 2 3 3 6 5 3 4 2 6 6 7 7 9 15 21 20 15
8 3 3 5 3 2 1 3 10 9 8 4 4 3 1 2 1 6 10 5 3 8 8 4 5 1 1 7 2 3 5 5 4 2 2 4 5 4 5 4 8 20 20 19 20
11 6 1 5 1 3 6 6 6 4 5 5 3 1 3 3 1 2 4 3 6 3 5 5 3 3 8 6 5 3 1 4 5 4 3 5 5 5 7 12 18 17 21 16 13
4 3 3 0 2 3 3 5 5 8 6 7 5 1 2 5 6 2 3 6 6 5 11 5 3 6 6 6 3 3 6 4 4 4 5 4 3 4 5 5 15 18 17 13 11
2 2 2 3 3 6 2 3 5 5 3 12 7 3 4 2 2 3 1 3 7 8 4 5 3 1 2 1 2 3 1 5 4 4 4 4 2 4 4 4 6 7 10 11 11
1 2 3 4 8 5 3 2 4 7 3 7 4 7 3 4 2 5 3 2 2 5 4 4 3 3 2 3 4 3 3 1 2 3 6 7 2 2 4 2 3 7 8 11 14
1 1 2 3 5 2 2 5 6 12 7 7 9 3 4 4 4 5 4 5 3 2 2 3 3 3 2 3 4 3 5 2 2 2 7 5 4 2 1 2 3 4 9 12 12
Wind_Direction
359 357 356 354 351 346 342 338 334 330 332 331 306 287 290 299 298 296 292 290 311 331 342 335 323 306 239 233 205 187 60 235 251 177 237 175 153 166 187 153 149 197 242 247 183
355 354 354 352 349 343 339 335 328 320 320 322 306 283 287 298 298 297 297 284 287 305 318 307 304 322 211 226 170 129 100 235 226 278 241 185 230 172 72 78 51 168 152 159 183
357 348 350 349 347 340 335 332 325 311 309 314 303 282 283 297 313 356 267 221 125 350 320 321 323 290 148 267 176 180 183 235 358 48 39 55 31 15 61 334 199 175 157 172 187
352 352 345 347 344 340 332 327 321 305 300 303 296 271 260 279 221 353 81 3 33 357 331 338 352 347 342 152 259 161 228 250 103 79 88 95 72 35 353 318 257 200 178 183 194
350 350 349 342 346 337 329 324 315 299 293 291 275 255 222 252 263 295 215 277 33 1 334 351 335 347 338 316 281 212 32 39 93 100 111 112 82 123 13 36 205 183 184 194 202
347 347 348 342 345 335 329 324 312 292 283 278 256 237 216 240 249 11 356 271 340 330 328 325 307 309 282 283 128 339 42 85 106 103 117 115 189 159 317 0 197 197 206 214 211
345 346 346 345 344 337 337 327 303 287 276 260 237 231 220 221 214 294 322 267 254 299 309 332 324 265 300 272 229 31 118 92 355 27 128 117 43 32 357 292 206 212 234 235 235
342 345 345 348 346 349 353 335 321 289 271 227 218 229 234 228 244 273 271 274 281 309 317 336 334 290 228 234 346 70 38 46 200 332 359 173 235 216 233 180 118 51 272 258 258
341 344 346 349 348 2 5 347 332 48 126 184 219 209 239 227 251 285 266 279 288 304 325 345 336 6 325 55 2 2 155 283 324 26 1 66 260 112 136 150 230 302 307 319 293
341 342 345 352 351 6 5 33 99 105 17 286 213 216 249 207 274 311 281 288 278 304 344 349 8 41 91 87 246 247 151 202 189 323 26 37 359 349 353 10 358 348 331 337 319
340 342 345 353 347 357 16 60 31 330 328 247 216 247 251 249 251 294 270 249 262 297 17 356 42 352 299 248 202 235 124 110 285 349 56 358 90 322 325 332 334 336 316 333 337
339 341 343 351 333 357 30 39 24 336 299 274 253 254 252 287 294 260 238 220 281 277 359 6 322 260 278 28 83 116 112 115 6 65 86 340 338 278 2 322 292 308 311 329 322
337 339 341 349 337 344 350 8 349 345 273 284 231 234 226 212 216 264 233 241 256 290 71 160 261 317 35 349 71 265 154 181 151 119 67 134 311 349 343 339 309 288 284 320 338
333 336 339 344 338 331 295 316 319 309 45 271 218 219 210 205 246 245 250 265 315 234 194 236 290 326 342 282 148 306 202 149 138 111 167 174 247 296 281 313 295 267 298 9 341
328 332 333 336 327 328 303 316 315 275 29 182 177 184 194 180 131 200 214 247 210 203 105 262 306 327 332 260 167 209 94 104 168 112 105 347 75 272 23 277 278 285 314 320 338
321 329 323 328 329 319 306 325 313 43 19 216 157 181 134 194 193 160 112 101 107 135 356 232 279 231 233 286 249 143 89 76 53 81 59 303 116 284 280 246 287 304 305 313 330
317 321 316 317 317 309 315 323 36 105 334 288 197 162 131 153 257 106 2 335 139 38 345 326 295 289 275 355 76 39 76 11 1 29 218 279 80 241 250 244 243 279 305 301 296
316 318 314 320 287 308 329 49 58 279 310 301 151 71 167 169 231 179 137 256 166 92 91 217 335 6 323 182 227 74 173 148 212 164 209 331 237 251 269 291 266 273 286 290 269
318 320 317 243 330 332 326 62 211 243 336 320 32 85 294 245 212 146 204 218 214 167 171 172 271 306 226 185 143 261 43 162 107 39 84 261 284 312 221 292 277 278 284 276 263
323 330 38 191 321 342 56 248 251 236 339 330 93 181 205 224 160 155 199 229 219 186 165 209 292 245 289 70 32 121 140 61 25 139 156 291 267 240 299 277 286 275 279 273 275
322 327 328 239 270 328 134 251 284 286 326 233 308 296 229 227 194 184 211 280 222 152 164 138 116 290 8 2 241 352 26 48 109 113 145 174 266 217 240 263 281 290 296 294 292
316 333 94 173 360 23 258 227 309 309 334 274 217 235 293 266 306 224 201 236 343 166 167 170 148 173 248 309 251 155 169 145 113 211 122 146 274 263 242 244 288 291 301 291 296
327 290 214 187 122 315 299 286 271 308 331 320 280 120 29 329 108 197 162 34 10 91 144 184 31 37 351 348 354 22 337 102 108 97 185 137 261 331 319 311 327 324 327 335 342
332 355 339 267 150 138 347 280 311 278 266 326 285 296 94 10 10 61 54 16 12 82 79 94 98 153 170 212 209 1 326 161 127 117 174 213 264 333 2 354 360 25 34 55 37
323 355 17 313 8 340 329 278 301 325 341 353 353 7 250 93 46 20 20 4 31 11 45 94 136 195 167 279 104 128 335 338 131 168 131 189 102 333 8 41 346 20 31 46 33
19 7 346 293 314 334 24 339 311 323 294 307 298 317 330 111 179 200 164 124 200 5 63 6 174 180 182 357 156 94 313 47 47 107 80 112 92 348 45 90 38 48 32 18 4
229 305 316 337 348 53 17 319 291 335 277 249 299 107 30 346 246 181 97 78 130 108 129 81 111 76 272 332 86 332 248 257 272 84 136 140 193 139 35 97 45 35 13 359 355